Theta_e
314 304 302 301 303 306 307 310 311 312 314 314 313 313 313 313 314 320 323 327 330 325 323 323 325 324 327 330 334 337 339 339 337 335 334 336 337 335 335 335 335 337 337 338 340 338 340 340 340 340 342 342 343 348 347 346 346 346 349 352 353 354 358 357 358 357 355 352 356 355 349 351 353 359 358 358 357 356 361 362 364 369 369 371 371 372
312 304 303 306 306 308 308 310 311 311 311 311 311 311 310 313 310 318 322 327 328 323 322 325 325 324 326 328 334 336 336 334 336 336 335 335 337 340 338 335 335 338 339 338 339 338 340 339 340 341 342 344 340 346 345 345 346 347 348 349 351 354 357 358 357 358 356 358 356 352 349 347 351 357 358 362 357 357 358 367 369 369 367 369 370 368
305 303 306 308 309 310 311 310 310 310 309 311 310 310 310 311 314 326 324 326 326 324 321 323 321 323 325 329 334 335 335 339 341 336 337 336 336 337 337 341 338 336 336 338 339 338 340 340 340 340 342 342 343 344 342 345 348 347 351 354 355 354 355 357 357 359 360 360 362 355 353 349 350 355 356 357 358 359 359 361 365 370 369 371 370 368
301 305 309 311 311 309 309 310 309 309 310 309 310 309 308 313 311 310 324 326 324 321 321 322 319 321 326 329 331 335 334 337 340 341 340 340 337 335 338 340 339 336 336 336 338 338 339 339 341 339 341 342 343 346 343 344 347 345 355 357 358 357 357 359 360 360 360 360 365 366 362 361 356 354 358 363 363 363 358 356 363 370 371 370 364 364
304 309 312 311 311 309 307 308 307 306 306 310 311 312 311 312 313 312 313 321 323 321 321 321 317 318 323 322 326 330 335 336 335 337 341 343 346 343 344 342 341 338 338 337 338 339 340 338 341 340 343 341 342 344 344 344 346 345 350 356 358 359 358 361 361 359 365 364 365 366 364 366 364 360 361 357 355 359 360 355 358 361 367 369 366 365
307 312 313 309 309 309 308 306 307 307 305 309 312 313 314 314 313 314 314 313 312 313 317 319 309 309 319 322 323 324 331 333 337 335 338 341 343 343 338 338 343 344 342 340 337 339 339 340 342 342 343 340 342 344 344 346 344 346 350 355 360 360 360 358 361 363 365 364 363 364 361 359 357 358 357 355 354 352 354 350 353 359 360 361 366 368
308 312 311 308 308 308 307 307 309 309 305 307 309 315 315 315 314 313 312 310 306 304 315 321 308 305 316 317 321 324 326 328 332 335 335 338 341 341 340 339 341 343 341 340 340 340 339 340 341 342 342 341 342 344 346 346 346 348 351 356 358 359 360 358 362 364 365 362 362 360 353 354 356 357 355 363 357 357 355 357 355 359 360 365 362 363
310 310 310 310 308 307 306 304 309 309 307 306 314 315 315 313 312 312 312 311 309 314 315 316 312 308 308 314 321 325 326 325 328 331 333 337 340 340 340 339 340 341 343 342 340 340 340 340 341 342 343 342 343 345 346 345 346 350 355 357 358 360 361 359 362 364 365 363 363 361 358 356 357 352 358 360 363 360 362 365 357 358 359 364 366 365
309 307 308 307 307 306 305 307 311 312 308 309 313 313 312 313 312 311 311 310 311 308 306 309 313 309 309 318 325 324 321 320 322 330 333 335 337 339 340 343 345 347 345 343 343 341 341 340 341 343 344 344 346 346 346 345 348 351 356 359 359 359 361 362 363 363 363 365 364 361 358 360 360 358 358 360 361 368 363 362 367 365 360 366 369 369
310 309 310 310 308 305 308 310 314 315 309 312 314 315 313 312 313 314 311 309 310 307 302 308 311 304 308 318 320 324 322 321 324 327 332 333 335 335 337 341 344 346 346 346 346 345 345 342 342 343 345 345 345 348 349 346 347 348 354 359 359 360 360 362 363 363 364 365 365 362 361 360 360 361 360 360 361 364 366 364 364 369 372 361 363 368
311 314 317 311 308 310 311 313 315 315 313 314 313 312 311 310 311 313 312 310 308 302 304 309 310 308 305 314 316 317 320 323 323 329 332 334 336 338 341 339 342 344 346 347 346 348 345 344 344 344 344 346 346 349 349 347 347 348 350 356 358 360 359 362 363 363 362 363 363 361 362 361 359 361 362 362 360 366 365 364 360 365 369 370 361 362
311 311 311 313 316 315 315 312 315 316 314 313 311 310 309 308 310 309 308 310 301 299 306 310 310 309 303 311 317 322 326 326 326 326 329 331 334 339 341 340 342 345 346 346 347 347 349 348 345 346 346 346 348 348 348 347 349 349 352 355 358 360 361 361 362 362 360 360 361 362 362 362 363 362 358 360 359 360 362 360 363 367 367 369 365 366
306 308 312 313 318 314 311 309 310 313 313 310 310 309 303 301 302 297 302 298 299 299 307 310 310 307 309 315 319 321 325 326 329 328 330 330 332 335 340 344 343 344 344 347 348 351 348 347 347 343 348 352 354 353 350 349 352 349 353 357 356 359 361 361 362 362 362 361 361 361 361 362 365 364 365 363 361 361 362 363 362 366 367 367 366 366
304 310 310 311 312 314 312 304 306 306 310 308 306 306 302 297 296 293 297 301 301 304 309 309 312 306 314 318 323 323 325 328 329 330 332 334 334 336 339 340 343 346 344 345 348 350 351 351 350 348 349 349 350 350 350 349 354 354 354 358 355 359 361 363 363 362 362 361 363 364 362 362 365 364 364 364 359 357 363 364 363 358 358 364 361 360
297 297 304 308 305 313 311 310 310 309 309 309 312 308 304 303 298 294 297 295 297 301 305 309 306 306 308 311 325 325 326 328 329 330 332 336 337 337 340 340 340 343 344 344 348 349 349 350 350 349 349 347 349 348 348 351 354 359 357 360 359 360 361 363 363 363 362 360 362 363 362 363 363 361 361 364 363 362 360 356 357 363 359 358 360 363
301 301 307 311 311 313 310 313 314 311 309 311 311 311 306 304 308 299 301 300 300 299 300 304 304 314 314 322 325 327 327 327 328 329 331 332 335 337 338 338 340 341 344 347 347 348 348 350 352 352 352 355 352 352 350 350 355 354 360 361 362 361 361 362 364 363 362 362 362 365 364 363 364 363 361 365 367 368 362 361 361 363 368 361 364 364
302 299 308 309 312 312 311 314 314 315 301 308 308 303 307 312 309 304 305 306 305 302 300 312 309 314 319 321 322 324 324 324 326 327 329 331 334 336 335 337 338 340 341 343 346 344 347 349 350 350 352 351 352 351 350 354 352 354 359 361 362 363 360 362 364 363 363 363 363 363 362 361 362 359 358 356 359 357 359 363 361 359 357 361 367 361
298 299 308 308 305 309 314 314 314 315 314 308 303 307 314 315 312 306 298 302 300 296 299 310 307 307 310 305 321 320 320 322 322 323 326 328 331 331 331 333 338 337 341 343 344 347 346 348 350 350 351 351 351 352 353 350 349 351 355 355 356 355 357 359 361 360 361 363 362 363 362 363 361 358 356 356 357 357 359 361 362 359 359 357 355 357
304 296 302 307 307 308 312 312 310 314 315 308 307 314 305 300 300 306 302 295 295 295 297 308 309 309 312 310 316 316 318 319 321 324 324 324 326 328 330 330 333 341 338 339 343 344 346 348 351 354 353 354 354 354 351 350 352 351 354 356 350 347 357 359 362 361 363 363 359 359 361 360 360 359 358 357 360 360 358 355 357 356 358 355 360 365
306 297 298 306 305 307 308 306 299 304 311 313 313 307 310 306 304 301 303 305 302 296 298 302 309 305 315 315 318 317 319 319 320 322 322 324 325 326 328 329 331 336 339 342 343 342 346 347 349 353 354 352 354 354 353 350 350 350 355 355 353 354 362 364 364 361 357 361 357 358 362 364 364 363 360 360 359 355 355 356 356 357 354 356 356 357
302 307 295 302 307 306 299 303 301 304 302 304 304 303 306 306 310 308 307 304 301 300 298 300 300 306 314 321 320 318 320 321 322 321 322 323 324 325 326 328 330 334 336 337 339 341 344 347 350 348 353 356 355 352 350 350 352 352 354 356 356 356 360 359 361 363 362 363 365 366 360 360 360 359 358 355 355 355 356 356 358 355 355 358 356 357
302 303 298 299 300 300 301 306 305 305 307 305 304 303 305 303 301 298 298 307 305 301 296 300 300 309 316 323 321 320 321 322 322 322 322 323 324 325 326 328 329 332 335 335 336 335 336 340 347 349 350 352 354 352 349 353 356 354 352 352 352 355 354 354 354 353 361 365 363 363 360 356 356 357 359 355 352 353 354 355 355 359 358 354 358 358
305 303 301 297 299 301 304 307 308 309 309 307 306 304 308 307 306 302 295 300 304 304 305 309 304 307 320 323 322 322 322 322 323 323 322 323 324 325 326 328 330 331 332 333 334 334 335 336 339 343 342 344 348 350 351 353 355 354 356 356 356 356 357 358 355 354 361 361 362 361 361 356 357 356 357 354 353 350 350 353 354 357 356 352 352 357
311 302 299 300 303 304 307 308 309 309 308 306 306 307 307 304 306 304 304 305 302 303 303 304 303 307 318 323 323 322 323 323 324 323 322 323 323 325 325 326 328 328 329 331 333 334 335 335 337 338 338 339 341 348 350 353 354 354 355 355 354 355 358 358 358 357 356 354 356 358 357 357 358 356 358 353 351 351 349 350 352 355 353 352 351 351
299 304 300 297 297 299 301 303 303 307 306 303 303 306 307 307 308 306 306 307 301 303 303 303 300 306 317 322 322 322 321 321 321 323 324 322 323 324 324 324 324 327 328 329 330 331 332 332 333 334 336 337 338 339 344 348 350 350 355 355 353 355 355 354 355 356 356 353 354 360 364 357 362 360 360 359 353 350 350 349 350 352 352 352 350 351
302 303 301 294 292 290 290 291 294 297 299 303 305 305 307 306 306 304 301 305 296 304 308 304 305 312 317 320 319 320 320 320 322 322 324 324 323 324 324 323 323 323 325 327 328 328 328 329 330 332 334 337 336 337 340 342 346 348 352 353 353 353 355 355 353 355 354 353 353 354 355 355 355 356 357 361 358 355 349 348 347 348 351 352 352 353
302 304 305 303 300 296 297 301 305 305 302 299 302 303 304 306 306 305 304 301 299 304 304 309 310 309 312 314 316 318 319 318 319 320 320 321 322 324 324 324 324 323 323 324 324 325 327 327 327 328 331 331 333 335 336 337 338 340 343 345 351 354 351 356 354 355 353 353 353 354 355 357 356 356 356 359 357 356 353 350 347 346 347 350 351 350
304 300 303 305 303 302 302 302 304 304 302 302 301 302 304 304 305 304 301 300 310 303 302 313 313 310 311 314 316 317 317 319 319 320 319 320 321 321 321 322 326 324 323 322 322 323 324 325 325 326 328 329 330 333 332 334 336 338 340 342 341 340 341 343 348 352 354 353 354 352 356 354 357 357 357 359 364 362 357 354 351 349 350 352 351 349
302 299 302 302 301 303 303 301 303 304 303 302 303 302 302 303 303 302 303 304 306 302 302 312 314 311 313 315 317 318 318 318 318 319 319 320 321 322 321 320 319 320 321 321 321 321 322 322 323 324 325 326 327 327 332 334 332 336 339 339 342 340 340 343 344 348 350 352 352 353 355 358 356 359 360 360 363 364 362 361 362 361 357 357 351 348
302 298 302 301 300 302 302 302 304 302 302 302 302 302 302 303 303 303 303 305 305 307 313 314 313 314 315 317 318 319 320 319 319 320 318 318 318 320 319 318 318 318 318 319 319 319 320 321 322 322 324 325 324 324 324 326 329 330 332 333 335 337 341 343 344 346 350 351 354 354 353 354 352 352 356 354 352 352 355 360 358 356 356 357 354 356
301 299 302 301 298 298 301 302 302 302 301 300 302 302 302 302 302 304 304 305 306 313 311 313 313 312 318 320 319 320 320 319 318 317 318 318 317 317 317 316 317 317 317 318 319 319 319 320 320 321 322 322 322 322 323 324 326 327 329 331 333 334 337 341 349 349 348 350 351 354 353 350 350 353 355 358 358 357 360 359 359 360 359 357 360 361
303 300 303 300 296 296 300 299 300 301 300 300 300 302 300 300 299 302 302 305 305 306 309 312 309 309 318 320 319 317 317 317 316 317 317 318 317 317 316 316 316 316 317 317 318 318 318 318 319 320 319 319 319 319 321 325 323 324 326 329 330 332 336 339 342 345 343 344 347 350 349 349 350 353 353 351 349 351 356 358 356 357 354 351 354 355
303 300 298 298 293 294 299 301 299 299 298 295 297 300 301 302 303 303 305 307 307 307 309 307 307 315 317 319 316 315 316 316 315 315 315 316 318 317 316 315 315 316 316 317 318 318 317 317 318 320 320 320 323 320 320 321 321 326 327 330 330 332 334 337 340 340 339 342 343 344 350 352 350 349 349 348 349 350 354 355 353 353 355 356 356 355
304 301 299 301 293 295 297 299 300 296 289 291 304 308 305 302 302 301 302 305 308 310 311 315 315 317 317 316 315 314 315 315 317 318 318 317 317 317 316 316 316 316 316 317 318 318 319 318 318 319 320 321 322 320 321 324 320 322 324 328 333 334 335 336 338 337 335 337 339 341 342 345 350 350 351 350 350 352 354 354 353 356 358 358 359 358
302 301 299 301 296 294 297 299 294 288 290 305 307 309 310 308 306 305 306 309 309 313 314 315 315 315 316 317 317 317 317 317 318 318 318 318 319 317 316 316 316 316 316 316 316 317 318 319 320 321 322 321 322 322 321 321 321 321 323 324 322 325 334 335 338 336 332 332 335 337 339 342 346 350 350 351 351 350 350 351 352 354 356 357 359 358
301 301 299 298 298 298 295 294 285 289 303 305 306 308 309 310 309 308 306 308 310 312 315 314 315 317 317 316 317 318 317 318 318 317 317 318 317 317 316 315 316 315 314 315 316 317 318 316 317 318 321 324 326 322 321 321 321 321 321 321 320 323 326 332 336 334 333 331 330 333 336 338 342 345 347 349 349 349 349 349 349 350 355 359 360 359
302 303 301 297 301 292 294 293 293 300 299 303 302 306 304 303 305 304 299 304 310 312 314 314 315 316 315 316 317 317 318 316 314 315 317 315 314 315 315 315 316 316 315 316 316 316 318 318 317 318 320 320 322 322 322 324 324 321 322 321 320 330 329 327 329 330 333 334 333 332 334 337 340 342 346 347 347 346 348 351 352 354 357 355 356 355
305 299 302 297 296 298 293 292 292 293 288 296 305 308 309 310 309 308 306 303 311 312 315 314 313 313 314 315 315 316 315 311 308 310 314 315 314 314 315 315 316 316 315 315 316 316 317 316 317 318 318 318 318 319 322 324 325 322 323 322 321 320 324 322 322 323 327 331 335 337 336 338 338 338 342 343 344 346 348 352 353 354 357 354 354 354
303 303 302 298 296 296 294 290 289 288 292 303 304 308 310 311 311 310 302 298 309 313 315 315 314 313 313 313 313 315 311 306 306 311 314 314 314 315 314 314 314 314 314 314 314 313 313 315 317 317 317 316 316 317 319 319 322 322 321 323 321 321 320 320 322 322 323 323 326 331 335 337 335 334 334 338 342 342 346 349 350 351 353 353 352 353
301 298 296 292 293 294 294 291 289 295 295 304 307 307 307 309 309 304 291 292 308 312 312 314 313 312 312 313 313 311 309 305 307 311 314 314 314 315 314 313 313 312 313 313 314 313 314 317 316 315 313 314 315 317 318 318 319 322 321 321 321 321 320 322 323 325 324 324 325 328 331 333 340 339 337 335 338 339 341 344 345 348 347 349 350 350
297 296 296 292 293 293 293 292 294 299 306 308 306 306 306 307 303 293 287 300 310 312 313 314 313 312 313 311 312 308 311 312 311 314 314 314 313 312 313 313 313 313 312 312 313 316 314 314 314 313 313 315 317 316 317 318 317 319 321 321 321 322 322 324 325 326 327 328 325 324 327 330 333 337 339 340 344 341 341 345 346 348 350 346 344 347
297 297 298 296 292 292 293 291 291 300 306 308 307 307 307 302 291 290 306 313 313 312 312 312 311 312 312 312 311 311 312 314 315 315 313 311 311 311 312 312 313 312 313 315 315 315 313 313 313 313 313 315 315 316 316 317 319 320 321 320 320 321 323 325 326 327 327 327 325 325 325 327 332 334 336 340 342 343 348 348 347 348 347 344 344 346
296 294 292 293 296 296 295 292 290 286 303 309 307 305 305 297 302 310 311 312 313 311 312 312 312 311 311 311 312 312 311 310 311 311 310 310 310 311 311 312 312 311 312 312 313 314 313 312 312 313 313 313 315 315 316 316 318 319 320 319 322 323 325 325 326 327 327 327 325 327 329 332 333 333 334 337 341 339 339 343 343 344 350 350 349 347
301 293 293 295 299 291 291 289 289 302 306 310 307 300 302 309 312 313 311 308 311 311 311 310 310 312 311 311 310 311 311 310 311 311 310 310 310 311 312 313 314 313 313 313 313 314 314 314 314 313 314 314 316 317 317 318 317 319 319 321 324 324 324 324 324 326 325 326 326 326 326 326 325 327 326 328 331 335 337 339 340 343 347 348 348 348
302 298 302 296 303 297 295 298 302 308 309 310 310 309 311 313 314 313 312 310 309 309 313 311 310 311 312 311 310 310 309 310 309 309 309 309 309 311 312 312 312 313 313 313 313 315 315 313 313 313 314 316 317 318 319 319 318 318 319 321 324 324 324 323 324 324 324 325 326 326 325 325 327 327 327 327 327 330 333 334 336 338 343 346 343 345
306 306 309 304 300 305 306 307 310 309 310 309 311 314 312 313 313 312 311 309 310 311 310 310 310 309 310 311 308 308 308 310 309 308 310 310 311 312 313 313 314 314 314 314 314 314 314 314 314 314 314 315 317 317 319 319 318 318 319 321 322 323 323 323 323 323 323 323 324 325 326 325 324 325 328 330 331 333 334 334 337 338 341 341 342 343
306 306 304 299 303 297 293 306 306 307 308 310 310 313 314 313 311 310 310 310 311 310 309 312 312 312 311 310 308 309 309 310 309 310 310 311 310 311 311 312 313 313 313 313 314 314 313 314 312 313 313 314 316 316 316 317 318 320 321 321 321 321 324 323 323 323 324 325 325 326 327 326 324 325 327 330 330 330 330 332 335 335 337 338 339 341
301 309 303 302 301 298 298 304 306 309 309 310 309 309 309 309 310 310 311 310 312 313 312 311 312 311 311 309 310 308 308 308 308 309 309 311 312 312 312 312 312 312 313 313 313 314 313 313 312 312 313 313 315 316 316 317 317 319 320 320 320 320 321 321 321 321 321 321 322 323 323 323 326 326 323 323 323 324 325 327 326 324 330 334 336 341
306 307 298 305 301 303 304 305 306 307 308 308 310 311 311 310 310 310 310 310 311 311 312 312 311 310 309 309 310 310 308 309 310 310 309 309 310 310 311 311 312 312 312 312 312 313 312 312 312 312 312 312 314 315 316 317 317 318 319 319 320 321 320 319 321 321 321 321 322 321 324 322 323 323 323 324 326 326 330 329 327 328 331 333 339 338
305 300 305 301 297 299 299 303 307 299 300 305 307 310 311 312 312 312 311 310 310 311 311 311 310 311 311 311 311 310 309 310 310 311 310 310 310 310 311 311 311 311 311 312 312 312 312 312 312 312 312 313 314 314 315 316 316 317 317 317 318 318 318 318 318 318 318 319 320 321 321 322 322 323 324 323 322 323 325 331 319 322 329 327 329 323
303 304 302 299 298 298 307 307 309 308 307 309 310 310 311 312 311 310 310 310 310 311 311 311 310 310 310 311 311 310 310 309 310 310 310 310 310 311 311 311 310 310 310 311 310 310 311 311 311 311 312 312 314 313 314 314 315 316 316 318 318 317 318 319 317 316 316 318 318 319 321 321 322 324 326 325 324 324 323 323 326 312 311 313 317 313
Wind_Speed
8 10 11 11 11 11 14 13 14 16 15 12 11 10 10 11 9 15 16 15 7 9 8 9 9 11 14 11 10 12 9 8 7 8 5 8 5 12 13 14 16 15 15 15 15 16 14 15 14 13 11 12 12 10 12 10 11 12 9 10 9 8 8 7 6 6 5 5 4 4 6 6 6 4 2 5 5 4 4 7 6 4 5 4 4 4
10 11 12 13 15 13 13 14 14 16 17 18 12 10 8 10 7 11 16 15 14 8 7 11 9 7 13 10 9 10 11 10 8 9 8 10 4 1 7 14 16 15 13 17 14 15 16 13 16 14 11 12 14 11 12 11 10 10 12 11 10 8 8 7 7 5 5 5 4 5 5 6 5 5 4 4 6 7 7 6 7 5 6 5 5 4
11 12 11 14 13 14 12 14 15 16 16 14 10 10 10 8 5 21 18 14 9 6 6 12 11 7 9 16 13 12 10 6 7 10 9 7 4 5 5 6 10 15 15 16 16 17 15 16 17 13 12 12 14 14 14 11 10 11 9 9 8 7 8 7 7 6 4 5 4 4 4 5 5 4 5 5 5 5 9 7 6 4 5 6 5 6
11 11 14 13 12 14 14 12 14 15 14 9 8 8 10 8 11 11 20 24 16 10 9 11 11 10 10 11 12 11 12 10 10 10 8 7 10 7 7 7 8 14 15 17 17 17 16 16 15 14 12 12 13 12 13 13 11 11 8 9 7 7 7 7 6 6 5 5 4 4 3 3 4 5 4 3 4 3 8 8 7 4 4 4 5 7
10 9 14 14 12 14 14 12 12 10 10 10 11 10 6 6 11 10 9 19 21 13 14 14 9 8 11 10 9 10 11 10 12 13 10 7 4 5 5 10 11 13 13 17 17 17 16 16 16 15 12 14 13 13 13 13 12 10 12 10 8 7 7 5 7 6 5 4 4 2 3 2 2 4 3 4 4 5 4 7 6 7 5 4 3 4
12 13 13 16 14 13 14 11 11 11 10 7 13 13 8 12 13 9 9 10 10 11 11 15 7 8 11 12 11 13 12 11 11 13 12 10 7 5 11 11 8 9 12 14 18 17 17 16 15 15 14 15 14 13 13 13 13 12 11 11 8 7 6 7 7 5 4 4 4 3 4 4 4 4 4 4 4 6 5 6 7 8 7 7 4 3
9 11 13 16 16 14 13 11 11 13 9 8 11 14 14 11 16 14 10 7 8 7 16 18 9 7 9 11 12 13 14 15 15 15 12 11 6 6 7 10 11 10 11 14 15 16 16 16 15 16 15 15 15 14 14 12 13 12 12 11 9 8 6 7 7 6 5 5 5 4 5 5 4 4 3 3 3 4 4 4 5 6 6 6 6 5
10 12 15 15 15 13 12 12 11 13 9 9 6 17 16 16 17 9 8 10 6 7 15 21 7 12 10 10 12 13 15 16 16 15 13 8 9 9 9 11 12 12 8 10 14 16 16 16 15 16 15 15 15 15 15 14 14 11 11 12 10 8 7 7 8 6 5 6 5 6 5 5 5 6 3 4 3 3 4 3 5 6 5 5 5 4
13 15 12 11 14 13 11 11 9 11 11 7 9 5 13 18 9 6 9 10 10 10 5 12 10 10 7 6 6 11 10 14 13 15 9 9 9 9 12 10 8 7 9 10 9 11 12 15 17 16 15 15 16 16 15 14 12 11 12 12 10 9 7 7 10 7 7 6 6 6 5 5 4 5 5 3 3 2 3 3 3 4 4 4 5 3
9 14 11 13 10 11 9 11 13 14 12 14 7 18 17 13 7 8 8 11 11 9 9 11 13 7 9 7 5 4 9 9 10 14 15 16 13 15 14 10 9 8 7 9 8 9 10 16 16 15 15 15 14 14 14 14 14 14 12 13 11 10 8 8 11 8 8 7 6 6 5 5 5 4 5 4 4 2 3 3 4 3 4 4 5 4
12 9 4 8 9 5 10 13 13 9 13 6 9 8 3 12 10 10 5 5 5 9 8 13 14 10 7 9 8 8 6 8 9 8 9 11 16 15 13 15 15 11 10 6 5 8 12 15 15 16 15 14 13 11 13 13 13 14 14 13 12 11 9 9 11 9 9 8 7 6 5 5 6 5 4 4 5 3 4 3 4 4 3 2 5 6
11 12 5 5 7 7 9 10 12 8 13 10 6 10 8 2 6 8 6 6 7 8 11 14 15 15 10 10 10 8 11 11 9 9 13 12 13 9 8 12 13 12 9 8 8 12 9 9 12 12 13 14 10 12 12 11 11 13 12 13 12 11 10 10 11 10 10 8 8 6 6 6 5 5 5 5 5 5 5 4 4 4 5 3 4 4
13 10 8 9 10 14 11 11 11 9 11 12 8 7 6 8 6 10 8 12 10 9 9 14 12 7 6 9 10 11 12 14 13 10 12 12 11 13 10 6 11 9 10 11 8 7 9 8 7 11 9 8 9 6 11 11 8 12 13 14 13 12 11 10 12 11 10 9 8 7 7 6 5 5 5 5 5 5 5 4 4 4 4 5 4 4
12 9 14 10 10 14 14 12 9 11 11 11 10 9 9 10 10 8 11 7 8 12 15 13 13 6 11 10 9 10 9 10 10 8 12 11 12 8 7 8 7 9 11 11 10 7 5 5 6 8 6 8 7 10 11 12 9 9 11 12 13 13 10 9 11 11 11 10 8 7 7 6 5 5 5 5 5 6 5 5 4 5 6 4 5 4
9 8 13 11 8 8 13 13 10 10 11 10 10 11 9 9 8 9 9 11 11 7 14 14 15 11 12 8 11 11 10 10 8 7 11 15 11 6 6 6 7 10 10 9 7 7 6 4 4 5 8 10 10 12 12 9 10 8 9 11 12 12 11 10 10 10 11 9 9 8 7 6 6 6 6 6 5 6 6 7 6 5 5 5 5 4
16 10 10 12 11 12 13 12 15 13 10 12 10 8 11 12 8 10 10 11 10 10 10 9 3 8 8 11 10 10 11 11 10 11 12 13 13 6 3 5 5 8 8 4 6 4 4 5 4 3 2 1 4 9 9 10 9 10 9 11 11 11 11 10 10 10 10 9 8 9 8 8 8 6 6 5 5 5 6 6 6 5 4 5 5 5
11 11 11 17 11 11 15 12 9 6 10 10 11 13 11 8 12 8 6 10 11 8 9 10 10 13 14 11 12 11 13 12 9 13 12 15 15 10 5 3 3 2 3 5 5 5 5 6 7 5 4 2 4 7 5 7 8 2 5 7 3 2 4 10 10 10 9 9 9 9 9 9 8 9 9 9 9 9 7 5 5 6 7 4 3 6
8 7 13 13 11 7 13 16 9 6 8 5 13 11 9 12 13 8 8 9 11 11 9 13 17 14 13 10 10 14 14 12 11 8 10 9 13 12 9 9 7 3 3 4 4 4 9 8 6 6 7 6 6 6 5 9 5 3 3 2 6 6 9 10 11 10 10 9 9 9 9 9 9 10 11 9 9 9 7 6 5 6 7 6 6 6
11 5 7 11 9 8 7 12 14 13 17 9 7 5 13 10 12 8 6 10 10 11 7 13 20 13 12 13 14 15 16 14 11 12 9 10 9 7 7 10 7 12 10 3 7 6 7 8 7 7 6 5 7 10 7 9 8 8 7 12 10 10 10 11 9 9 7 9 9 9 10 11 10 9 9 8 7 7 7 9 7 8 6 8 6 4
7 4 5 5 7 10 8 6 9 9 10 12 10 10 8 9 9 10 9 5 6 7 10 8 9 7 7 11 16 15 14 12 14 11 11 8 8 7 6 6 6 10 8 8 11 8 6 7 8 4 5 8 9 10 8 6 5 6 6 8 9 8 8 6 7 7 6 8 8 7 7 9 7 8 8 7 7 9 9 8 8 9 9 8 7 5
9 6 5 7 11 9 9 8 11 10 12 12 9 7 6 8 5 9 8 10 9 4 5 9 5 5 5 5 10 14 12 11 13 12 11 10 9 8 5 6 5 7 12 7 11 10 5 3 3 5 5 4 8 10 13 9 8 7 6 7 7 8 6 7 5 2 1 5 5 4 2 4 8 12 9 11 9 9 8 8 8 9 7 6 6 6
8 5 2 8 8 8 8 10 13 14 14 12 9 10 8 12 12 10 11 11 12 8 4 8 8 6 4 8 11 13 12 12 12 12 10 9 10 7 4 4 4 4 9 10 11 12 10 10 6 3 5 2 5 9 13 9 5 7 7 7 8 8 6 6 1 3 4 7 3 1 2 5 5 11 10 12 11 11 9 10 8 7 7 8 6 6
7 6 4 4 7 9 12 15 10 3 4 8 8 11 10 9 10 10 8 8 11 11 2 8 10 6 2 7 9 10 13 13 12 12 11 11 11 9 7 6 5 7 10 9 9 10 10 9 10 10 9 10 6 7 8 8 5 3 3 2 2 6 8 7 8 9 4 3 3 6 6 4 6 8 14 14 12 13 13 11 10 8 8 9 9 7
11 3 5 3 6 6 4 7 7 8 6 7 7 10 12 12 11 10 9 3 8 12 5 4 5 6 3 7 8 13 13 12 11 10 12 11 9 9 8 9 8 8 10 12 11 10 9 8 9 9 10 11 11 10 8 7 7 5 4 3 1 2 3 4 4 4 4 5 7 7 7 8 9 12 14 14 12 13 13 11 11 9 9 10 10 9
7 4 3 3 3 6 7 5 5 6 6 8 8 8 10 12 8 10 12 9 5 8 4 4 6 7 8 8 10 11 11 13 11 10 10 10 9 9 10 10 9 8 8 8 9 9 10 10 11 10 10 10 11 12 11 9 8 6 4 3 2 2 0 2 2 4 5 4 5 6 7 11 8 9 12 11 10 13 13 12 11 10 10 10 10 9
5 6 5 6 6 7 7 6 6 9 11 9 12 12 12 14 9 8 8 3 4 5 9 7 8 8 8 9 10 10 13 12 10 10 10 10 10 9 9 10 10 10 9 10 10 10 11 11 11 11 10 8 9 10 11 11 10 7 6 5 3 3 1 2 3 4 3 4 5 7 7 9 12 14 14 9 9 12 12 11 11 11 10 10 9 7
5 4 4 3 3 2 2 4 9 7 9 12 11 11 15 9 6 8 7 7 5 6 4 7 16 15 13 11 11 13 11 11 12 11 10 10 10 9 9 9 10 9 10 11 11 10 10 11 12 12 11 12 10 10 10 10 9 8 7 7 4 2 2 2 1 2 3 4 5 8 11 11 10 12 13 10 10 10 10 11 12 11 11 10 9 9
4 6 6 4 3 6 6 6 8 11 8 13 12 17 10 7 11 11 7 6 8 3 7 5 17 18 16 15 15 14 13 13 12 12 13 13 11 10 10 11 11 11 12 11 11 12 12 12 11 11 12 12 11 10 10 10 8 7 7 7 7 8 7 6 5 3 2 5 5 8 11 9 8 6 9 9 6 6 8 8 7 7 8 8 10 10
6 6 7 8 8 8 8 12 9 10 10 15 20 15 13 9 11 11 8 17 9 5 6 10 11 13 15 15 15 14 13 11 10 10 9 13 10 12 11 12 12 12 12 12 12 12 12 12 11 12 12 12 12 12 10 8 8 7 6 5 6 7 7 6 7 6 3 2 2 8 8 5 3 3 2 7 6 4 5 6 5 5 5 5 8 10
4 4 9 4 9 9 4 9 8 8 7 12 9 3 4 6 6 12 13 12 13 5 18 16 12 10 12 14 14 14 12 12 11 11 11 12 8 9 10 11 12 12 12 13 13 12 11 12 12 12 12 11 12 11 10 8 8 8 8 7 8 7 6 5 7 7 5 4 4 4 3 5 4 7 7 10 11 12 12 9 7 6 8 11 6 6
3 4 3 6 7 4 6 5 6 10 7 7 4 3 3 7 9 6 9 10 5 14 9 13 15 12 9 11 12 11 11 10 8 5 9 12 9 9 10 10 11 11 12 12 12 12 12 12 12 12 11 11 11 11 10 8 8 9 9 9 8 8 9 8 4 5 8 7 8 6 9 9 8 7 7 3 3 3 5 7 7 5 3 4 10 5
5 2 4 3 6 8 7 5 8 7 7 10 12 7 6 8 9 7 4 3 6 7 8 14 9 10 7 15 14 13 11 11 10 10 10 8 8 8 8 9 10 11 11 11 11 11 12 13 12 11 11 12 12 11 10 7 8 8 9 9 10 9 9 8 7 7 8 10 10 9 8 7 7 8 9 10 11 8 7 7 6 5 6 9 12 7
3 6 4 3 6 8 10 6 6 3 7 9 10 9 5 9 9 6 4 2 6 5 12 11 9 11 15 14 15 13 12 10 10 8 8 7 6 7 8 9 9 10 11 11 11 11 11 12 11 11 11 10 8 9 10 8 8 6 6 5 6 8 8 8 8 8 9 10 10 10 8 6 7 8 8 6 1 5 4 2 4 4 1 4 5 6
2 5 5 3 6 5 11 11 4 4 7 7 5 14 10 12 12 9 5 3 3 7 5 9 12 10 15 14 14 13 13 12 11 10 9 7 4 5 7 8 9 9 10 10 10 10 10 10 9 9 10 10 9 10 9 7 7 7 6 6 5 5 3 4 6 7 9 9 9 9 9 9 6 6 5 3 2 3 4 4 4 5 4 3 3 4
4 1 6 5 6 7 9 7 6 9 9 6 4 7 11 9 3 1 3 5 2 9 21 17 15 16 13 13 14 14 14 14 13 11 9 7 6 5 5 6 7 8 9 9 9 9 9 9 9 8 7 8 8 8 8 8 8 7 6 7 8 6 4 3 6 7 8 9 9 9 9 9 8 6 5 5 5 4 4 4 4 5 5 3 4 4
5 5 3 7 6 6 5 6 5 7 4 2 5 5 8 5 8 7 7 3 3 7 11 18 17 13 12 13 12 14 14 13 11 12 7 5 5 5 6 5 6 8 8 8 9 8 8 9 9 8 6 5 6 8 7 7 7 7 7 7 8 7 6 5 7 8 7 7 8 8 9 9 8 8 6 4 4 3 2 2 4 6 5 4 5 4
5 5 3 5 4 8 8 9 7 4 4 3 1 0 2 2 3 3 3 3 3 6 7 12 12 13 12 12 14 14 14 12 8 5 7 9 3 6 7 7 6 6 7 7 7 9 8 8 8 8 6 6 6 8 6 4 5 6 6 6 6 4 4 7 7 7 6 5 5 5 5 6 8 6 6 5 4 6 6 4 3 3 3 5 6 7
2 4 5 4 3 6 9 9 6 5 5 7 5 4 2 4 5 3 2 4 2 4 9 12 13 13 13 11 13 15 15 13 10 8 7 7 5 5 5 7 7 6 6 6 6 8 8 8 7 6 6 6 8 8 6 4 5 5 5 6 7 6 5 6 7 6 5 5 3 1 1 2 4 6 6 5 5 2 2 4 2 3 3 5 6 8
4 4 4 5 7 5 5 7 5 7 1 5 9 6 6 5 6 7 4 7 3 5 10 12 13 14 13 12 13 11 12 11 6 9 10 9 7 6 6 5 6 6 6 7 9 8 8 7 6 6 6 7 9 8 7 7 6 5 6 6 6 6 6 6 6 5 5 6 5 4 2 2 2 5 6 6 7 6 4 2 3 4 4 4 5 7
5 5 5 7 8 6 7 6 7 2 3 3 6 4 4 4 4 2 6 8 11 7 9 9 9 12 12 11 15 8 4 5 3 10 10 10 8 6 4 5 5 5 6 7 9 8 6 5 5 7 8 9 9 8 7 7 6 6 6 6 6 6 6 6 6 5 5 5 5 4 5 4 2 2 2 4 5 5 6 5 4 5 4 5 5 7
5 6 6 8 7 7 8 7 5 5 5 6 6 6 3 3 3 6 6 5 11 8 6 6 9 5 6 6 2 3 9 8 7 8 10 7 8 7 5 3 5 5 5 7 8 6 5 6 7 8 9 8 7 8 8 8 7 7 6 6 5 6 6 6 6 5 4 4 5 6 5 5 5 5 5 4 4 5 6 5 5 6 4 5 6 6
5 5 5 7 9 9 7 7 5 5 5 5 5 3 4 5 5 4 5 2 1 8 5 3 5 8 6 4 5 7 8 8 6 4 6 7 6 4 1 5 5 5 6 6 5 5 7 6 7 7 8 8 8 9 8 7 7 6 6 6 6 7 7 6 6 6 5 5 6 6 6 6 6 6 5 4 5 5 5 6 6 6 6 6 5 7
4 4 6 7 5 7 7 7 6 4 4 5 7 3 0 5 3 5 5 7 7 6 4 6 3 6 2 8 6 9 7 7 7 7 6 3 3 4 4 5 4 5 6 6 6 8 8 7 7 8 8 8 8 8 8 8 8 7 6 6 6 6 6 6 6 5 5 5 6 5 5 5 6 6 5 5 5 5 6 6 6 5 5 5 6 7
4 7 4 6 5 5 7 7 1 5 8 7 5 0 3 5 4 3 4 5 7 4 1 6 10 4 9 4 5 5 5 5 3 3 2 1 2 3 3 4 5 6 6 7 8 9 9 8 8 8 9 8 9 9 8 8 7 7 7 7 7 7 7 7 7 6 6 6 6 6 6 6 7 7 8 7 6 6 6 7 6 6 6 6 6 7
5 8 4 4 4 4 3 3 5 5 6 4 3 5 8 6 5 5 5 6 6 3 3 3 6 5 6 6 5 4 3 3 2 3 1 3 2 3 4 5 5 5 6 6 7 8 9 9 11 10 10 9 10 9 8 8 8 9 9 8 7 7 7 7 7 6 7 6 6 6 6 7 7 8 8 8 8 6 5 6 7 7 6 5 6 6
2 5 3 6 7 6 7 1 6 6 6 5 6 6 6 7 7 4 6 8 4 6 2 2 7 6 5 4 3 4 2 4 2 1 2 2 2 4 3 2 4 5 5 6 6 8 8 9 9 10 11 11 11 10 8 9 9 10 9 9 8 8 8 8 8 8 8 7 7 7 7 8 8 8 8 9 7 8 7 7 7 7 7 7 6 6
10 8 7 6 5 3 4 8 9 7 6 6 6 7 5 6 6 4 3 2 7 7 5 5 5 7 7 6 2 2 4 4 3 1 1 2 2 2 3 4 4 5 6 6 7 8 7 8 9 10 11 11 11 10 10 11 9 9 9 9 9 9 8 8 8 8 7 7 7 7 6 7 7 7 7 6 7 8 8 8 8 8 8 8 7 7
6 16 10 10 9 8 5 3 3 6 7 7 7 7 7 7 6 5 4 3 5 6 7 7 5 6 6 5 5 3 3 2 2 2 2 3 2 1 2 3 4 4 5 6 7 7 7 8 9 10 11 10 10 10 11 11 10 10 10 10 10 10 10 9 9 9 9 10 9 8 8 8 10 9 8 8 8 8 8 8 8 8 7 6 6 5
5 4 5 8 8 7 10 6 6 1 3 6 8 7 6 7 7 6 4 4 5 7 6 7 5 6 5 3 5 4 3 2 2 3 2 2 2 3 3 4 4 4 4 5 6 6 6 7 8 10 11 11 10 10 10 10 10 10 11 10 10 9 9 10 11 10 11 10 9 9 7 8 8 8 8 7 7 7 7 8 9 9 9 8 6 6
3 6 2 7 8 7 2 7 10 5 7 8 9 8 7 7 7 6 6 7 8 8 7 6 7 4 5 4 4 4 3 2 2 0 2 2 2 3 3 3 3 4 5 5 5 6 7 8 9 10 10 10 9 9 10 10 9 9 10 10 10 9 9 10 10 10 10 9 9 9 9 8 8 8 8 9 9 9 9 10 11 8 7 8 11 16
8 4 2 6 6 6 3 5 6 7 6 3 1 5 9 7 10 12 13 11 9 9 10 10 9 8 5 4 3 2 3 2 4 3 3 2 4 3 3 4 5 5 5 6 6 6 7 8 8 9 10 9 9 10 10 10 11 10 10 10 9 10 9 9 10 10 10 9 9 10 10 10 9 8 7 7 9 9 10 10 10 14 17 18 19 18
Wind_Direction
174 214 204 210 221 213 212 226 235 245 262 252 242 204 208 218 209 164 142 146 159 143 155 162 151 151 138 153 167 150 159 157 145 143 216 273 219 175 175 172 168 170 167 164 174 161 162 160 159 153 158 154 153 149 148 156 155 150 154 147 153 150 149 157 160 172 162 166 187 157 166 160 154 144 159 146 150 127 157 143 138 145 143 143 141 133
208 218 217 213 220 227 209 218 234 247 253 269 279 303 263 212 231 134 131 144 159 158 174 135 138 135 136 151 165 157 162 171 171 149 179 196 273 235 205 174 172 172 165 169 171 165 160 167 161 157 162 159 157 151 157 164 160 155 155 157 158 155 152 161 168 178 168 163 181 162 170 166 159 153 167 155 153 163 142 120 142 165 155 155 152 133
209 220 219 217 218 232 231 216 227 238 248 250 256 242 279 209 180 121 142 154 172 159 159 154 133 186 151 149 173 169 169 167 164 170 167 175 146 188 273 312 184 174 172 172 173 169 164 171 163 161 166 163 158 156 165 163 159 158 154 156 162 152 158 164 167 180 170 167 175 175 169 184 155 160 168 158 138 173 135 148 137 164 139 155 153 155
208 220 228 220 213 226 235 229 222 232 244 257 254 254 262 196 184 167 158 152 170 177 164 165 154 149 156 154 163 173 170 167 172 171 167 169 175 187 219 201 217 186 170 177 172 174 168 174 164 165 169 165 160 160 166 167 164 166 146 154 163 159 165 167 155 181 166 171 181 179 168 190 157 157 154 141 151 152 147 151 143 145 165 161 159 163
215 214 215 232 216 217 232 222 220 224 228 227 258 247 255 237 184 223 162 152 165 169 157 180 158 144 150 157 166 177 176 157 167 180 170 180 165 180 211 223 214 193 178 179 176 176 173 176 168 168 172 170 165 168 168 172 170 171 159 156 172 161 165 173 149 186 156 173 155 161 164 151 131 138 169 158 163 147 163 150 158 157 164 154 175 167
215 222 194 223 225 216 227 226 215 224 230 216 232 246 202 218 246 206 132 183 199 160 170 175 166 155 167 159 173 161 168 168 171 173 172 175 190 169 195 216 202 233 184 183 179 177 178 175 170 167 175 174 168 173 170 177 172 170 162 160 168 162 155 180 157 182 157 148 148 178 159 144 162 182 157 178 169 153 174 169 163 152 169 154 165 166
233 203 215 204 221 214 218 235 206 217 228 218 208 234 253 201 210 234 158 203 204 195 169 193 175 143 161 163 168 178 162 165 176 169 179 169 172 184 223 190 192 197 199 185 183 180 183 178 174 169 178 177 173 176 170 182 172 169 162 158 172 165 162 176 155 187 147 148 162 177 176 164 172 162 183 166 182 165 162 175 164 143 167 154 168 159
242 222 214 204 210 217 206 223 218 199 220 222 210 191 228 245 252 229 191 217 257 224 182 190 206 140 161 149 169 187 170 171 172 172 159 164 170 185 211 193 181 190 196 194 190 185 186 178 182 176 179 182 177 175 174 182 173 165 158 160 170 167 169 172 157 183 163 159 176 173 182 179 165 180 186 170 206 175 185 152 163 151 153 171 147 174
207 233 209 197 210 214 210 212 216 189 219 229 226 192 220 236 255 257 250 212 224 235 221 177 202 151 144 120 144 168 131 179 170 126 135 153 189 214 194 189 170 182 195 190 188 198 195 178 183 178 181 187 179 177 175 184 169 158 157 158 171 167 173 166 158 177 169 171 180 179 187 173 186 179 168 183 202 184 173 152 134 147 146 150 131 170
200 238 201 209 230 207 196 204 236 177 217 239 287 295 207 210 217 251 241 230 214 221 254 201 179 208 133 141 132 131 163 165 170 144 167 170 181 212 187 161 185 192 195 194 191 201 217 186 183 184 182 192 184 179 175 180 173 163 158 160 172 167 177 165 162 176 174 175 180 184 197 175 187 195 159 168 193 144 174 162 161 121 119 168 143 164
184 236 104 199 202 216 193 214 231 184 224 241 209 293 180 187 196 220 243 219 248 231 239 230 180 217 137 166 180 166 171 175 158 153 157 175 169 183 184 168 185 177 188 173 196 212 208 198 187 179 189 194 189 176 180 180 174 169 164 166 173 170 174 168 164 176 176 179 179 185 204 187 187 182 151 176 166 161 141 218 162 141 180 190 163 168
252 149 161 204 255 244 247 212 219 217 210 210 199 240 196 233 242 213 217 240 229 232 228 225 207 162 130 157 171 169 144 165 165 164 161 167 179 174 178 184 173 169 165 171 201 208 207 199 178 180 185 191 190 177 170 175 170 168 158 167 174 171 178 169 167 177 180 183 180 186 199 195 187 184 168 189 176 162 173 194 182 161 165 201 184 173
239 197 171 208 201 240 215 251 193 209 211 220 195 196 191 187 198 210 211 214 222 243 212 235 236 222 56 129 136 154 160 141 158 179 158 166 167 174 176 166 170 163 183 174 190 185 187 195 195 179 201 172 181 153 166 166 170 167 162 164 176 174 182 172 170 179 179 185 184 187 189 194 189 199 172 187 176 170 178 189 187 165 183 167 207 167
208 195 177 182 206 209 234 216 193 186 210 212 218 175 216 200 188 227 208 234 225 232 266 242 222 102 125 120 137 143 142 123 119 132 145 159 159 169 166 173 174 180 182 188 185 176 178 199 184 178 170 181 174 172 170 175 166 162 168 166 176 174 183 172 174 179 181 185 184 189 185 188 191 192 177 185 188 186 178 189 192 187 184 200 193 184
189 163 226 174 202 181 236 248 208 195 187 211 234 191 210 220 191 205 219 213 225 224 227 253 235 140 146 153 131 126 109 115 128 123 113 118 142 140 146 160 177 189 178 178 175 168 180 208 200 171 186 194 186 174 187 166 171 158 165 168 172 175 181 177 178 180 184 184 186 188 187 189 187 192 193 190 196 179 185 193 200 190 182 187 197 183
212 200 190 180 222 180 219 231 264 218 194 196 219 218 208 217 203 218 196 212 201 216 213 220 72 100 90 133 124 122 122 113 135 132 106 103 85 95 145 174 187 176 167 154 161 154 173 196 222 124 107 89 183 164 192 178 163 173 160 164 177 178 180 178 180 183 187 184 186 184 194 189 189 190 193 194 201 187 189 193 191 183 221 192 172 191
224 228 174 174 214 160 215 224 237 185 211 188 214 217 223 236 245 226 245 239 226 211 224 104 125 108 125 134 143 133 130 124 111 120 124 113 122 133 139 166 149 168 177 167 170 171 183 213 197 181 166 158 63 65 54 20 339 318 149 139 119 128 194 189 185 183 190 186 184 190 193 195 194 193 197 198 198 202 194 201 192 179 204 216 187 179
325 257 143 141 169 203 212 229 255 187 255 238 207 215 237 250 270 268 242 197 223 221 189 134 132 149 153 139 153 145 130 123 121 111 118 137 132 131 117 96 141 211 293 250 204 174 191 201 196 174 178 167 145 107 121 101 107 101 330 201 144 179 207 210 192 191 192 187 193 190 194 201 199 199 202 200 195 204 194 203 198 195 185 198 211 206
303 158 113 165 193 146 225 220 227 225 214 240 222 176 219 199 229 243 287 240 208 214 209 134 142 155 158 138 161 149 140 132 121 116 120 115 108 98 115 73 25 135 144 131 157 188 203 194 190 170 140 110 106 131 169 148 148 169 175 128 147 197 226 201 192 202 195 192 200 196 198 202 205 206 203 206 191 198 202 205 195 212 189 191 207 195
307 240 173 168 222 165 189 196 229 216 235 249 296 288 278 288 230 221 210 258 276 217 210 135 173 132 113 149 156 137 130 134 122 108 99 93 78 70 100 89 33 116 134 121 134 182 223 215 202 133 147 154 147 146 118 108 160 185 177 144 165 192 194 185 214 179 213 221 212 206 198 201 211 210 208 204 192 197 208 209 198 209 201 194 195 196
290 265 201 152 224 149 201 192 216 203 204 205 224 258 230 238 275 249 206 229 234 255 245 126 143 95 25 90 124 116 110 121 108 98 93 93 70 68 45 59 51 66 107 121 99 92 103 159 157 143 166 156 163 135 123 170 201 184 162 158 156 175 165 177 196 186 297 271 225 223 345 286 234 211 214 208 202 198 202 201 209 200 217 189 199 196
263 182 288 143 215 173 219 185 221 216 211 217 215 229 221 200 213 223 236 202 223 222 230 186 109 126 110 117 129 118 111 110 115 113 110 104 104 111 109 76 71 133 127 104 73 56 56 68 92 29 6 283 155 125 123 135 174 187 180 179 175 169 174 172 122 309 233 209 167 124 147 171 307 272 216 212 206 205 200 199 204 199 204 202 198 204
354 342 293 218 215 196 218 172 200 12 284 267 267 226 229 224 222 224 240 207 229 238 311 85 126 130 157 125 127 119 120 119 116 114 108 104 102 91 90 102 58 16 41 70 85 68 58 51 67 91 80 61 63 132 116 109 135 102 70 112 132 153 161 172 173 199 196 225 207 200 197 204 192 244 251 215 210 206 207 200 202 205 199 208 201 203
323 283 274 306 350 46 86 119 188 227 293 272 254 269 217 219 225 245 231 274 246 223 164 121 92 136 170 135 122 111 99 106 112 111 112 102 97 93 100 87 69 51 43 47 56 66 57 50 59 64 65 70 64 73 112 121 113 123 128 134 148 165 181 195 207 189 193 209 222 220 203 209 217 223 239 226 214 207 207 203 201 202 209 209 209 194
286 182 258 311 269 217 165 59 281 242 247 252 239 226 276 254 227 339 321 52 319 264 190 99 120 148 166 133 133 132 129 119 119 116 115 113 109 114 105 95 92 90 86 82 82 75 65 59 54 54 50 53 71 69 74 96 87 90 113 155 121 65 177 264 328 282 262 239 235 226 219 216 219 241 225 233 236 214 209 210 202 196 206 212 217 206
298 338 258 227 221 218 200 200 183 196 212 221 235 220 222 245 254 280 286 286 260 316 73 117 109 126 143 148 144 151 124 115 113 117 119 119 119 118 111 107 110 105 99 99 90 76 65 59 57 61 65 49 59 67 74 73 73 66 52 74 129 154 188 276 242 215 253 288 281 261 243 240 214 218 227 203 222 237 216 212 212 197 196 211 218 223
321 326 325 6 273 29 331 249 277 291 174 224 216 247 228 236 307 283 330 328 300 264 105 108 138 145 151 163 157 131 137 129 129 126 122 120 111 108 115 115 109 97 93 90 85 76 71 64 58 58 64 69 52 62 67 70 72 57 36 26 20 137 131 154 266 324 286 253 248 258 240 229 239 231 224 202 208 224 228 218 214 212 199 198 212 216
279 271 198 197 243 320 342 338 321 319 301 212 225 229 249 265 257 254 251 254 78 7 103 124 140 148 158 162 155 145 138 140 139 137 130 130 120 114 112 111 105 105 96 87 83 81 75 69 67 63 62 67 74 50 53 62 64 55 40 35 20 23 32 23 23 352 277 263 232 233 252 244 255 272 260 237 208 222 230 242 249 228 210 183 197 213
325 263 225 192 229 252 302 338 334 311 318 309 217 230 208 226 255 258 256 256 266 332 109 148 156 153 160 159 154 152 141 140 142 108 91 83 101 130 120 102 98 94 95 92 83 78 75 72 67 63 62 69 70 73 60 41 53 67 52 28 22 32 16 1 9 351 320 290 257 244 249 277 239 253 347 313 324 302 258 237 267 302 283 203 194 204
301 248 347 344 276 199 264 256 256 296 334 333 71 61 9 327 255 253 261 264 258 118 141 156 158 147 150 148 150 144 142 141 130 120 138 116 96 94 103 98 90 87 84 83 84 82 77 75 72 68 65 62 67 61 57 55 43 42 55 40 27 23 25 18 17 348 352 330 295 26 323 279 334 1 354 14 1 355 342 349 12 22 1 315 247 199
298 57 342 312 324 300 223 255 276 264 301 299 258 73 310 276 299 271 249 258 284 116 160 155 143 132 128 142 137 140 137 119 117 155 76 95 134 102 89 91 91 90 81 78 82 82 78 72 69 70 69 67 64 63 58 49 39 37 28 31 38 25 12 4 26 4 13 8 6 18 23 22 6 2 8 12 82 49 343 343 341 348 358 338 329 290
279 241 146 252 282 270 197 217 244 268 287 282 270 218 231 250 245 243 260 272 254 162 145 145 135 145 156 144 127 107 124 136 128 126 128 130 108 106 95 89 88 83 80 75 68 69 72 71 63 64 66 63 64 65 64 59 52 46 38 26 19 23 21 12 355 21 20 23 15 26 32 26 3 7 10 26 10 353 349 346 351 358 29 354 329 344
324 303 279 183 225 260 262 174 249 240 261 255 251 241 222 249 254 245 218 313 300 254 141 165 150 151 147 138 137 134 134 131 120 120 91 81 79 91 98 98 90 86 88 83 71 65 62 59 60 53 56 64 68 66 57 58 69 64 62 57 42 34 19 15 16 16 24 24 25 23 21 27 30 29 40 73 338 280 270 304 278 273 264 180 243 316
332 288 286 281 262 242 262 242 231 255 241 247 37 348 244 210 217 238 175 252 28 309 103 142 137 142 146 150 149 150 145 153 149 126 124 116 103 70 64 72 78 79 73 73 77 73 66 62 57 48 45 49 54 58 56 44 56 59 61 79 80 81 59 34 41 31 30 24 25 26 13 2 26 37 44 19 11 322 312 323 315 325 330 318 301 283
294 254 267 278 261 252 247 226 224 233 246 56 36 24 11 9 357 182 114 78 70 87 104 108 133 156 155 148 150 142 120 110 110 131 131 124 122 115 90 65 69 71 73 71 62 62 69 63 57 54 45 49 52 54 43 34 33 43 53 56 47 35 39 64 76 53 39 25 19 22 14 4 3 27 33 27 10 17 356 1 317 297 279 278 280 275
331 311 286 238 247 268 263 193 229 232 49 68 68 19 3 17 43 87 80 69 74 113 132 136 147 156 160 149 139 117 132 141 146 127 136 141 130 129 112 86 56 64 63 59 70 66 53 48 41 40 33 52 67 66 46 32 24 31 38 45 53 32 17 42 71 68 55 40 32 13 5 359 358 0 23 31 19 14 351 305 301 308 305 284 277 267
335 285 280 291 220 240 238 224 222 52 250 129 62 68 348 351 169 253 211 146 90 138 157 143 153 167 175 161 142 151 148 130 137 143 156 139 127 105 109 105 88 62 61 61 55 70 60 40 24 26 12 40 56 61 39 30 40 22 35 38 40 65 29 39 45 47 56 65 61 38 360 348 331 339 0 16 26 13 346 326 310 301 306 286 266 262
269 270 8 318 244 245 254 249 228 212 253 223 131 121 81 37 354 54 287 133 131 133 144 155 166 152 142 147 158 151 148 145 148 163 176 141 184 134 114 112 108 92 65 60 57 60 46 33 13 12 16 17 40 36 14 8 45 18 39 31 17 27 48 53 48 28 29 40 47 114 288 308 317 329 1 348 349 54 287 294 307 304 313 297 288 278
279 292 287 268 286 274 255 250 237 251 133 11 115 102 75 73 36 56 233 208 160 157 166 168 173 146 154 161 165 178 203 213 165 157 150 145 129 106 97 67 57 64 62 53 48 36 22 16 360 358 13 19 34 10 352 9 22 26 30 33 8 6 23 46 48 27 27 17 355 351 345 315 332 333 341 343 329 334 345 347 320 309 299 295 298 296
250 237 221 239 245 250 271 246 244 272 123 98 86 99 94 79 67 236 236 227 157 182 162 185 179 177 184 154 152 150 207 228 175 119 134 126 108 104 82 65 53 37 34 39 47 19 9 356 4 15 4 17 20 343 357 18 14 20 26 9 360 8 5 23 23 18 21 7 343 350 344 336 290 267 288 292 308 327 322 314 303 295 314 309 297 286
209 231 228 251 238 228 234 264 255 106 84 118 131 103 97 105 167 211 206 72 145 157 155 177 169 174 146 118 43 130 77 80 54 61 87 109 114 92 80 87 66 46 27 29 32 2 12 12 20 6 358 13 349 353 5 11 3 10 8 357 352 3 354 360 352 356 9 354 345 336 337 320 330 319 306 282 260 254 264 281 302 297 281 290 298 300
259 281 257 241 246 251 247 240 239 72 115 131 97 111 113 188 185 198 85 277 218 132 135 169 201 142 135 70 121 93 110 94 102 115 99 84 63 82 33 45 35 24 30 28 14 22 26 15 11 360 358 353 353 3 358 356 9 4 1 352 352 344 343 341 342 343 338 343 333 332 325 326 309 308 298 292 288 269 262 252 245 250 258 268 267 272
292 252 235 235 244 257 255 259 252 223 152 179 118 151 123 266 55 104 127 103 74 61 67 34 49 115 134 155 150 58 78 95 91 73 53 46 42 61 46 38 26 22 18 3 14 22 15 7 359 0 349 347 354 356 359 354 356 350 348 342 350 346 345 348 335 333 327 319 320 313 309 305 309 303 298 283 268 269 273 272 264 256 245 237 245 258
255 267 264 256 251 259 233 241 295 31 134 143 169 316 143 78 122 140 113 111 85 114 49 93 18 121 140 167 157 133 109 100 118 103 89 71 51 52 72 63 40 17 6 8 9 11 3 359 354 346 343 345 354 352 353 347 342 346 346 350 358 346 343 332 331 320 310 309 303 310 307 310 307 304 298 296 291 282 273 270 267 265 251 242 249 251
189 245 358 297 14 305 2 44 190 198 132 149 84 101 97 130 121 115 124 127 132 112 121 112 105 70 94 108 121 89 126 120 55 82 49 63 26 41 39 28 17 20 12 12 0 11 358 349 342 339 339 346 347 345 346 346 344 346 347 352 342 340 332 330 327 324 315 312 307 299 301 296 290 288 288 286 287 285 286 284 289 287 273 263 262 259
62 264 339 289 269 265 259 286 98 166 162 149 126 107 124 118 120 102 118 138 168 131 153 129 131 134 112 101 138 154 177 105 132 123 129 102 44 49 45 21 31 24 9 3 2 7 348 341 339 338 337 338 342 343 344 346 345 340 342 338 336 331 332 329 327 321 314 306 297 293 290 286 285 284 283 283 281 278 268 264 265 262 262 261 255 243
229 226 239 245 256 275 250 174 186 162 158 173 138 138 135 147 140 161 141 131 128 133 137 86 119 120 124 132 152 111 128 132 147 119 25 1 350 359 355 15 8 3 5 357 359 347 345 342 335 334 335 333 337 336 334 336 335 333 333 331 329 325 325 324 316 311 309 303 298 289 281 278 277 274 277 273 275 273 271 265 248 248 252 253 255 260
346 335 290 228 242 241 245 138 227 176 196 190 177 164 172 162 148 158 158 178 128 144 141 128 106 124 126 156 150 186 181 166 175 155 214 193 200 121 34 18 11 355 355 349 333 346 337 336 330 330 331 329 329 330 329 328 328 327 328 326 324 326 324 320 323 319 316 313 309 301 297 292 291 288 280 275 273 277 282 281 284 283 277 263 260 275
319 236 278 338 286 251 253 230 186 207 226 201 202 191 183 178 166 167 170 197 158 158 152 137 171 156 177 171 157 167 209 178 164 147 222 323 341 342 354 352 338 334 331 324 334 331 326 328 328 326 323 321 323 321 321 318 318 321 320 319 320 323 324 323 322 322 316 314 311 306 305 297 292 288 289 286 280 269 261 260 269 286 296 292 326 330
218 239 340 360 289 258 3 343 336 241 220 210 220 214 199 176 174 180 185 190 189 177 168 174 163 177 166 171 162 167 195 165 216 42 335 330 322 308 299 293 321 326 320 320 320 331 333 332 329 324 319 315 314 314 312 313 312 313 315 318 321 324 320 321 317 314 314 314 312 309 309 309 307 310 308 305 302 304 303 301 311 313 302 299 304 312
246 211 205 243 244 259 103 249 351 320 303 331 160 224 241 226 201 193 184 191 190 191 192 185 192 169 177 177 182 189 158 192 219 206 218 218 245 256 298 327 311 307 310 326 329 326 319 318 316 309 309 314 319 315 314 314 315 314 317 319 317 315 317 321 318 313 312 312 311 315 317 311 302 295 288 287 284 280 279 278 278 284 293 294 287 281